QPF
0.00 0.00 0.00 0.00 0.00 0.00 0.00 0.00 0.00 0.00 0.00 0.00 0.00 0.00 0.00 0.00 0.00 0.00 0.00 0.00 0.00 0.00 0.00 0.00 0.00 0.00 0.00 0.00 0.02 0.01 0.00 0.00 0.00 0.00 0.00 0.00 0.00 0.00 0.00 0.00 0.00 0.00 0.00 0.00 0.00
0.00 0.00 0.00 0.00 0.00 0.00 0.00 0.00 0.00 0.00 0.00 0.00 0.00 0.00 0.00 0.00 0.00 0.00 0.00 0.00 0.00 0.00 0.00 0.00 0.00 0.00 0.00 0.00 0.00 0.00 0.00 0.00 0.00 0.00 0.00 0.00 0.00 0.00 0.00 0.00 0.00 0.00 0.00 0.00 0.00
0.00 0.00 0.00 0.00 0.00 0.00 0.00 0.00 0.00 0.00 0.00 0.00 0.00 0.00 0.00 0.00 0.00 0.00 0.00 0.00 0.00 0.00 0.00 0.00 0.00 0.00 0.00 0.00 0.00 0.00 0.00 0.00 0.00 0.00 0.00 0.00 0.00 0.00 0.00 0.00 0.00 0.00 0.00 0.00 0.00
0.00 0.00 0.00 0.00 0.00 0.00 0.00 0.00 0.00 0.00 0.00 0.00 0.00 0.00 0.00 0.00 0.00 0.00 0.00 0.00 0.00 0.00 0.00 0.00 0.00 0.00 0.00 0.01 0.00 0.01 0.00 0.00 0.00 0.00 0.00 0.00 0.00 0.00 0.00 0.01 0.00 0.00 0.00 0.00 0.00
0.00 0.00 0.00 0.00 0.00 0.00 0.00 0.00 0.00 0.00 0.00 0.00 0.00 0.00 0.00 0.00 0.00 0.00 0.00 0.00 0.00 0.00 0.00 0.00 0.00 0.00 0.00 0.00 0.00 0.00 0.01 0.00 0.00 0.03 0.01 0.00 0.00 0.00 0.00 0.00 0.01 0.00 0.00 0.00 0.00
0.00 0.00 0.00 0.00 0.00 0.00 0.00 0.00 0.00 0.00 0.00 0.00 0.00 0.00 0.00 0.00 0.00 0.00 0.00 0.00 0.00 0.00 0.00 0.00 0.00 0.00 0.00 0.00 0.00 0.00 0.00 0.00 0.00 0.01 0.00 0.00 0.01 0.02 0.02 0.00 0.00 0.00 0.00 0.00 0.00
0.00 0.00 0.00 0.00 0.00 0.00 0.00 0.00 0.00 0.00 0.00 0.00 0.00 0.00 0.00 0.00 0.00 0.00 0.00 0.00 0.00 0.00 0.00 0.00 0.00 0.00 0.00 0.00 0.00 0.00 0.00 0.00 0.00 0.01 0.00 0.00 0.01 0.01 0.01 0.00 0.00 0.00 0.00 0.00 0.00
0.00 0.00 0.00 0.00 0.00 0.00 0.00 0.00 0.00 0.00 0.00 0.00 0.00 0.00 0.00 0.00 0.00 0.00 0.00 0.00 0.00 0.00 0.00 0.00 0.00 0.00 0.00 0.00 0.00 0.00 0.00 0.01 0.02 0.01 0.01 0.01 0.01 0.04 0.01 0.00 0.00 0.00 0.00 0.00 0.00
0.00 0.00 0.00 0.00 0.00 0.00 0.00 0.00 0.00 0.00 0.00 0.00 0.00 0.00 0.00 0.00 0.00 0.00 0.00 0.00 0.00 0.00 0.00 0.00 0.00 0.00 0.00 0.00 0.00 0.00 0.00 0.01 0.02 0.00 0.00 0.00 0.02 0.10 0.02 0.02 0.00 0.00 0.00 0.00 0.00
0.00 0.00 0.00 0.00 0.00 0.00 0.00 0.00 0.00 0.00 0.00 0.00 0.00 0.00 0.00 0.00 0.00 0.00 0.00 0.00 0.00 0.00 0.00 0.00 0.00 0.00 0.00 0.00 0.00 0.00 0.00 0.00 0.01 0.01 0.01 0.00 0.03 0.03 0.03 0.03 0.02 0.01 0.00 0.00 0.00
0.00 0.00 0.00 0.00 0.00 0.00 0.00 0.00 0.00 0.00 0.00 0.00 0.00 0.00 0.00 0.00 0.00 0.00 0.00 0.00 0.00 0.00 0.00 0.00 0.00 0.00 0.00 0.00 0.00 0.00 0.00 0.00 0.00 0.00 0.01 0.02 0.01 0.02 0.02 0.02 0.02 0.02 0.03 0.02 0.01
0.00 0.00 0.00 0.00 0.00 0.00 0.00 0.00 0.00 0.00 0.00 0.00 0.00 0.00 0.00 0.00 0.00 0.00 0.00 0.00 0.00 0.00 0.00 0.00 0.00 0.00 0.00 0.00 0.00 0.00 0.00 0.00 0.00 0.00 0.01 0.01 0.01 0.01 0.00 0.02 0.06 0.01 0.01 0.01 0.00
0.00 0.00 0.00 0.00 0.00 0.00 0.00 0.00 0.00 0.00 0.00 0.00 0.00 0.00 0.00 0.00 0.00 0.00 0.00 0.00 0.00 0.00 0.00 0.00 0.00 0.00 0.00 0.00 0.00 0.00 0.00 0.00 0.00 0.00 0.00 0.00 0.00 0.01 0.00 0.00 0.06 0.04 0.00 0.00 0.00
0.00 0.00 0.00 0.00 0.00 0.00 0.00 0.00 0.00 0.00 0.00 0.00 0.00 0.00 0.00 0.00 0.00 0.00 0.00 0.00 0.00 0.00 0.00 0.00 0.00 0.00 0.00 0.00 0.00 0.00 0.00 0.00 0.00 0.00 0.00 0.00 0.00 0.00 0.02 0.02 0.05 0.01 0.00 0.00 0.00
0.00 0.00 0.00 0.00 0.00 0.00 0.00 0.00 0.00 0.00 0.00 0.00 0.00 0.00 0.00 0.00 0.00 0.00 0.00 0.00 0.00 0.00 0.00 0.00 0.00 0.00 0.00 0.00 0.00 0.00 0.00 0.00 0.00 0.00 0.00 0.00 0.00 0.00 0.00 0.03 0.13 0.05 0.00 0.00 0.00
0.00 0.00 0.00 0.00 0.00 0.00 0.00 0.00 0.00 0.00 0.00 0.00 0.00 0.00 0.00 0.00 0.00 0.00 0.00 0.00 0.00 0.00 0.00 0.00 0.00 0.00 0.00 0.00 0.00 0.00 0.00 0.00 0.00 0.00 0.00 0.00 0.00 0.00 0.00 0.01 0.07 0.06 0.01 0.00 0.00
0.00 0.00 0.00 0.00 0.00 0.00 0.00 0.00 0.00 0.00 0.00 0.00 0.00 0.00 0.00 0.00 0.00 0.00 0.00 0.00 0.00 0.00 0.00 0.00 0.00 0.00 0.00 0.00 0.00 0.00 0.00 0.00 0.00 0.00 0.00 0.00 0.00 0.00 0.00 0.00 0.01 0.02 0.02 0.02 0.00
0.00 0.00 0.00 0.00 0.00 0.00 0.00 0.00 0.00 0.00 0.00 0.00 0.00 0.00 0.00 0.00 0.00 0.00 0.00 0.00 0.00 0.00 0.00 0.00 0.00 0.00 0.00 0.00 0.00 0.00 0.00 0.00 0.00 0.00 0.00 0.02 0.01 0.01 0.01 0.02 0.02 0.04 0.03 0.01 0.00
0.00 0.00 0.00 0.00 0.00 0.00 0.00 0.00 0.00 0.00 0.00 0.00 0.00 0.00 0.00 0.00 0.00 0.00 0.00 0.00 0.00 0.00 0.00 0.00 0.00 0.00 0.00 0.00 0.00 0.00 0.00 0.00 0.00 0.00 0.00 0.01 0.00 0.03 0.05 0.04 0.07 0.01 0.01 0.00 0.00
0.00 0.00 0.00 0.00 0.00 0.00 0.00 0.00 0.00 0.00 0.00 0.00 0.00 0.00 0.00 0.00 0.00 0.00 0.00 0.00 0.00 0.00 0.00 0.00 0.00 0.00 0.00 0.00 0.00 0.00 0.00 0.00 0.00 0.00 0.00 0.01 0.00 0.01 0.04 0.03 0.02 0.00 0.02 0.02 0.00
0.00 0.00 0.00 0.00 0.00 0.00 0.00 0.00 0.00 0.00 0.00 0.00 0.00 0.00 0.00 0.00 0.00 0.00 0.00 0.00 0.00 0.00 0.00 0.00 0.00 0.00 0.00 0.00 0.00 0.00 0.00 0.00 0.00 0.00 0.02 0.01 0.00 0.00 0.03 0.01 0.00 0.01 0.01 0.01 0.00
0.00 0.00 0.00 0.00 0.00 0.00 0.00 0.00 0.00 0.00 0.00 0.00 0.00 0.00 0.00 0.00 0.00 0.00 0.00 0.00 0.00 0.00 0.00 0.00 0.00 0.00 0.00 0.00 0.00 0.00 0.00 0.00 0.00 0.00 0.00 0.00 0.01 0.06 0.14 0.04 0.03 0.00 0.00 0.01 0.00
0.00 0.00 0.00 0.00 0.00 0.00 0.00 0.00 0.00 0.00 0.00 0.00 0.00 0.00 0.00 0.00 0.00 0.00 0.00 0.00 0.00 0.00 0.00 0.00 0.00 0.01 0.00 0.00 0.00 0.00 0.00 0.00 0.00 0.00 0.00 0.01 0.02 0.08 0.05 0.01 0.00 0.00 0.00 0.00 0.00
0.00 0.00 0.00 0.00 0.00 0.00 0.00 0.00 0.00 0.00 0.00 0.00 0.00 0.00 0.00 0.00 0.00 0.00 0.00 0.00 0.00 0.00 0.00 0.00 0.00 0.00 0.00 0.00 0.00 0.00 0.00 0.00 0.00 0.00 0.00 0.01 0.01 0.01 0.01 0.00 0.00 0.00 0.00 0.00 0.00
0.00 0.00 0.00 0.00 0.00 0.00 0.00 0.00 0.00 0.00 0.00 0.00 0.00 0.00 0.00 0.00 0.00 0.00 0.00 0.00 0.00 0.00 0.00 0.00 0.00 0.00 0.00 0.00 0.00 0.00 0.00 0.00 0.00 0.00 0.00 0.00 0.00 0.01 0.00 0.00 0.00 0.00 0.00 0.00 0.00
0.00 0.00 0.00 0.00 0.00 0.00 0.00 0.00 0.00 0.00 0.00 0.00 0.00 0.00 0.00 0.00 0.01 0.00 0.00 0.00 0.00 0.00 0.00 0.00 0.00 0.00 0.00 0.00 0.00 0.00 0.00 0.00 0.00 0.00 0.00 0.00 0.00 0.00 0.00 0.00 0.00 0.00 0.00 0.00 0.00
0.00 0.00 0.00 0.00 0.00 0.00 0.00 0.00 0.00 0.00 0.00 0.00 0.00 0.00 0.00 0.00 0.01 0.00 0.00 0.01 0.01 0.00 0.00 0.00 0.00 0.00 0.00 0.00 0.00 0.01 0.00 0.00 0.00 0.00 0.00 0.00 0.00 0.00 0.00 0.00 0.00 0.00 0.00 0.00 0.00
MSLP
1020.07 1019.66 1018.97 1018.18 1017.70 1017.08 1016.58 1016.05 1015.40 1014.83 1014.54 1014.14 1013.71 1013.44 1013.20 1012.86 1012.18 1012.46 1011.35 1009.50 1008.90 1008.97 1009.38 1008.90 1008.38 1008.42 1008.31 1008.53 1007.78 1007.44 1007.70 1007.92 1007.74 1007.85 1007.70 1007.54 1007.80 1007.57 1007.82 1008.44 1008.82 1009.22 1010.02 1010.82 1011.22
1020.11 1019.59 1019.18 1018.42 1017.55 1017.14 1016.56 1015.94 1015.33 1014.72 1014.29 1013.94 1013.63 1013.36 1013.12 1012.85 1012.24 1010.90 1009.07 1009.00 1009.08 1008.78 1008.89 1008.46 1008.24 1008.05 1008.50 1008.42 1007.59 1006.56 1007.52 1007.05 1007.09 1007.16 1007.28 1006.98 1007.33 1007.47 1007.87 1008.49 1009.21 1009.78 1010.51 1010.83 1011.22
1019.88 1019.53 1019.16 1018.62 1017.67 1016.93 1016.54 1015.81 1015.35 1014.65 1014.08 1013.80 1013.54 1013.33 1013.14 1012.93 1012.07 1009.26 1008.44 1008.88 1008.90 1008.57 1008.42 1008.62 1007.92 1007.54 1008.28 1008.14 1007.51 1006.54 1006.74 1006.62 1006.64 1006.63 1006.68 1006.96 1007.04 1006.78 1007.59 1008.51 1008.85 1009.58 1010.37 1010.99 1011.57
1020.20 1019.36 1019.00 1018.46 1017.84 1016.84 1016.33 1015.78 1015.14 1014.60 1013.98 1013.58 1013.39 1013.26 1013.08 1012.72 1011.13 1008.57 1008.58 1008.80 1008.70 1008.82 1008.51 1008.52 1008.71 1007.90 1008.90 1008.48 1007.28 1007.07 1006.74 1007.10 1006.71 1006.52 1006.65 1006.87 1006.90 1006.90 1007.18 1007.94 1008.33 1009.24 1010.02 1010.88 1011.66
1020.44 1019.70 1018.89 1018.41 1017.64 1016.91 1016.06 1015.70 1014.84 1014.36 1013.86 1013.47 1013.30 1013.15 1012.71 1011.90 1009.44 1008.26 1008.71 1008.88 1008.84 1008.58 1008.29 1008.00 1008.19 1009.19 1008.89 1007.82 1007.73 1007.83 1007.88 1007.22 1007.26 1007.56 1006.97 1006.72 1008.25 1008.47 1007.70 1007.53 1008.15 1009.06 1009.93 1010.76 1011.54
1020.56 1019.81 1019.13 1018.34 1017.47 1016.84 1015.94 1015.37 1014.50 1013.88 1013.53 1013.27 1013.17 1013.15 1012.55 1010.41 1007.47 1007.74 1008.23 1008.77 1008.49 1008.27 1007.36 1006.95 1006.60 1006.74 1007.50 1007.25 1007.31 1007.24 1007.44 1007.70 1007.16 1007.65 1007.76 1007.44 1009.00 1010.51 1009.01 1008.75 1008.60 1009.21 1010.02 1010.67 1011.29
1020.66 1019.58 1018.84 1018.20 1017.31 1016.54 1015.84 1014.86 1014.08 1013.38 1013.14 1012.96 1012.93 1012.62 1011.30 1008.50 1006.82 1007.13 1007.77 1007.58 1007.14 1007.22 1006.95 1006.20 1005.83 1006.17 1006.19 1006.79 1007.08 1008.04 1008.52 1007.95 1007.80 1007.37 1008.51 1007.57 1008.94 1009.31 1009.26 1009.41 1008.96 1009.27 1009.90 1010.40 1010.90
1020.49 1019.42 1018.61 1018.00 1017.04 1016.19 1015.59 1014.32 1013.38 1012.76 1012.72 1012.55 1012.66 1012.18 1009.96 1006.81 1006.64 1007.02 1006.99 1006.86 1006.28 1006.12 1005.93 1005.68 1005.51 1005.80 1005.96 1005.90 1007.12 1008.08 1009.54 1009.80 1008.47 1008.48 1008.22 1008.92 1011.16 1010.43 1010.28 1010.23 1009.48 1009.32 1009.61 1009.95 1010.33
1020.43 1019.64 1018.67 1017.91 1016.85 1015.98 1014.91 1013.56 1012.50 1012.06 1012.22 1012.19 1012.26 1011.51 1008.78 1006.56 1006.52 1006.31 1006.28 1006.47 1006.17 1005.74 1005.53 1005.17 1005.15 1005.81 1005.89 1006.04 1007.36 1007.88 1009.09 1009.43 1008.49 1006.68 1008.64 1009.52 1012.00 1012.82 1011.93 1012.74 1010.23 1009.46 1009.12 1009.28 1009.63
1020.72 1019.62 1018.64 1017.76 1016.56 1015.69 1014.42 1012.53 1011.70 1011.69 1011.81 1011.61 1011.20 1010.75 1007.93 1006.57 1005.83 1005.76 1005.81 1006.04 1006.32 1006.19 1006.02 1005.51 1005.62 1005.76 1005.77 1006.38 1007.51 1007.82 1008.16 1008.07 1008.11 1008.60 1009.86 1010.84 1012.90 1014.16 1014.02 1012.26 1011.24 1011.12 1010.66 1009.64 1009.53
1020.62 1019.56 1018.60 1017.55 1016.06 1015.62 1014.61 1012.69 1012.18 1012.04 1011.01 1010.71 1009.86 1008.59 1006.50 1006.26 1005.50 1005.60 1005.64 1005.94 1006.23 1006.49 1006.66 1005.82 1006.25 1006.01 1005.31 1005.84 1006.07 1006.35 1007.07 1007.38 1008.89 1010.06 1011.00 1012.74 1015.17 1014.71 1014.56 1012.10 1011.04 1011.57 1013.06 1010.18 1009.85
1020.36 1019.66 1018.66 1017.34 1015.85 1014.69 1015.15 1013.56 1012.01 1011.52 1010.53 1009.37 1008.62 1007.76 1006.67 1006.26 1005.61 1005.55 1005.58 1006.22 1006.55 1006.87 1006.67 1006.57 1005.91 1005.45 1004.95 1004.96 1005.36 1006.12 1006.59 1007.62 1009.35 1010.48 1011.21 1012.00 1013.70 1013.92 1013.70 1013.14 1010.92 1012.49 1012.52 1011.53 1010.15
1020.45 1019.84 1018.92 1017.31 1015.36 1014.13 1013.80 1012.18 1010.89 1010.76 1010.64 1008.52 1007.53 1006.90 1006.26 1006.24 1005.87 1005.75 1005.77 1006.13 1006.62 1006.94 1006.99 1007.25 1006.34 1005.10 1004.91 1004.74 1005.07 1005.70 1006.54 1007.57 1009.02 1010.04 1011.37 1013.08 1013.73 1014.16 1014.72 1013.73 1011.90 1012.06 1011.93 1010.96 1010.08
1020.44 1019.86 1019.25 1017.74 1015.16 1014.73 1013.12 1011.50 1010.98 1010.94 1010.66 1007.69 1006.51 1005.89 1005.90 1006.06 1006.09 1005.60 1005.65 1005.95 1006.38 1006.98 1007.09 1007.11 1006.44 1005.82 1005.23 1004.90 1004.88 1005.69 1006.07 1007.18 1008.50 1009.97 1011.46 1012.62 1014.91 1014.70 1015.66 1014.99 1014.02 1012.83 1012.15 1010.68 1010.50
1020.55 1019.80 1019.26 1018.94 1017.53 1015.44 1012.78 1011.64 1011.21 1011.26 1009.86 1005.84 1005.50 1004.81 1005.46 1006.22 1005.98 1005.60 1005.17 1005.36 1006.50 1006.99 1007.40 1007.12 1006.78 1006.19 1005.54 1004.80 1004.70 1005.52 1006.14 1007.47 1008.84 1010.76 1012.18 1013.40 1014.19 1015.28 1016.06 1016.29 1015.84 1014.32 1012.26 1010.98 1010.84
1020.38 1019.71 1019.37 1018.12 1017.30 1014.42 1013.02 1011.92 1011.83 1011.61 1008.22 1005.72 1005.04 1005.13 1005.84 1006.09 1006.11 1006.01 1005.82 1005.87 1006.38 1007.08 1007.30 1007.29 1006.50 1006.08 1005.17 1004.69 1004.67 1005.08 1006.38 1008.07 1010.00 1011.85 1013.65 1012.73 1013.60 1015.08 1016.08 1015.36 1014.66 1013.42 1011.78 1011.17 1011.05
1019.95 1018.96 1019.26 1017.80 1015.46 1013.26 1012.85 1012.47 1012.06 1010.00 1005.91 1005.81 1005.51 1005.36 1005.96 1006.19 1006.38 1006.43 1006.42 1006.85 1007.53 1007.90 1008.06 1007.44 1006.79 1005.63 1004.96 1004.85 1004.68 1005.30 1007.23 1009.53 1011.63 1013.21 1013.84 1013.28 1013.61 1014.67 1015.16 1014.42 1012.94 1012.16 1011.86 1011.36 1010.82
1019.54 1017.96 1016.24 1015.45 1014.08 1013.44 1013.34 1013.08 1011.38 1008.06 1005.95 1005.03 1005.17 1005.46 1006.22 1006.32 1006.74 1006.80 1007.10 1007.50 1007.49 1008.03 1008.08 1008.05 1007.03 1005.85 1005.02 1004.74 1004.96 1005.76 1008.09 1010.38 1012.34 1013.58 1014.32 1013.98 1014.64 1014.77 1014.41 1013.50 1011.99 1011.62 1011.85 1011.13 1010.83
1019.04 1016.70 1015.38 1013.42 1013.43 1013.56 1013.70 1012.84 1009.99 1007.55 1006.24 1005.41 1005.09 1005.50 1006.00 1006.16 1006.46 1006.91 1007.08 1007.28 1007.21 1007.29 1007.84 1007.86 1007.20 1006.10 1005.81 1004.76 1005.67 1006.86 1008.32 1009.69 1011.88 1013.42 1014.39 1015.08 1014.62 1014.54 1014.98 1015.25 1012.97 1011.96 1011.58 1010.88 1010.93
1019.78 1017.33 1014.48 1011.91 1012.40 1013.23 1013.68 1011.92 1009.34 1007.34 1006.25 1005.66 1005.68 1005.23 1005.60 1005.85 1006.34 1006.66 1006.75 1006.39 1006.55 1006.34 1006.65 1007.23 1007.06 1006.90 1007.07 1006.52 1006.54 1007.39 1008.68 1010.31 1012.24 1014.05 1014.85 1015.61 1015.53 1015.45 1014.29 1013.26 1013.52 1012.83 1011.38 1010.85 1010.55
1019.58 1017.04 1012.48 1011.79 1012.40 1013.31 1013.27 1011.24 1009.04 1006.96 1006.24 1005.98 1005.86 1005.62 1005.13 1005.26 1005.58 1006.00 1006.07 1005.85 1005.63 1005.89 1006.19 1006.60 1007.30 1007.85 1007.80 1008.37 1008.40 1008.66 1009.76 1012.05 1013.36 1014.19 1014.67 1014.92 1015.09 1014.44 1014.63 1013.81 1013.33 1011.94 1011.50 1010.32 1010.48
1019.37 1016.47 1012.26 1011.85 1013.08 1012.85 1012.22 1010.71 1008.75 1007.16 1006.22 1005.88 1005.68 1005.43 1005.07 1005.06 1005.03 1005.46 1005.57 1005.39 1005.16 1005.81 1006.63 1007.12 1007.86 1008.67 1008.80 1008.06 1008.07 1008.91 1010.24 1011.53 1013.58 1013.47 1013.26 1013.55 1014.41 1014.36 1013.61 1013.62 1011.85 1011.75 1011.00 1010.12 1009.87
1020.51 1016.41 1012.59 1012.14 1013.25 1012.81 1011.80 1010.21 1008.60 1007.34 1006.55 1006.00 1005.86 1005.52 1005.47 1005.60 1005.71 1005.50 1005.83 1005.93 1005.96 1006.44 1007.19 1008.06 1008.74 1009.57 1009.37 1008.86 1008.32 1008.58 1009.58 1009.92 1011.32 1011.78 1012.46 1013.62 1014.02 1013.08 1013.28 1013.46 1012.44 1011.96 1010.32 1010.05 1009.98
1021.05 1017.06 1013.75 1012.93 1012.89 1012.85 1012.22 1010.44 1008.73 1007.05 1006.85 1006.42 1006.36 1006.05 1006.05 1006.08 1006.03 1006.31 1006.64 1006.56 1006.80 1007.33 1007.74 1008.27 1009.12 1009.74 1010.36 1009.47 1009.10 1008.90 1008.74 1008.99 1009.98 1010.96 1011.32 1011.96 1012.36 1012.38 1012.92 1012.54 1011.32 1010.57 1009.99 1009.65 1009.96
1020.74 1017.25 1015.46 1014.28 1013.50 1013.02 1012.09 1010.70 1009.26 1007.71 1006.91 1006.72 1006.64 1006.57 1006.88 1007.05 1007.48 1008.22 1007.84 1007.46 1007.81 1008.59 1008.60 1009.06 1009.84 1009.87 1009.66 1010.04 1010.07 1009.88 1009.50 1008.84 1010.08 1009.75 1010.62 1011.59 1011.31 1011.66 1011.16 1011.15 1010.80 1010.24 1009.72 1009.80 1009.83
1020.56 1018.12 1016.50 1015.49 1014.02 1013.08 1011.94 1010.50 1009.56 1008.24 1007.69 1006.88 1006.91 1006.89 1007.19 1008.15 1007.98 1009.03 1009.10 1009.45 1010.10 1010.03 1010.05 1010.08 1010.23 1010.30 1010.46 1010.44 1010.47 1010.20 1010.00 1009.87 1009.73 1011.74 1009.72 1010.17 1011.01 1010.76 1010.78 1010.49 1010.84 1010.84 1010.62 1010.50 1010.29
1020.74 1019.11 1017.85 1016.03 1014.50 1013.45 1012.04 1010.91 1009.72 1008.97 1007.94 1007.05 1007.14 1007.02 1007.13 1008.26 1008.61 1008.18 1008.62 1009.32 1009.94 1011.00 1010.87 1011.40 1011.29 1011.10 1011.26 1011.19 1011.15 1011.02 1010.48 1010.34 1010.27 1010.58 1010.24 1010.62 1011.09 1010.70 1010.92 1011.03 1011.22 1010.93 1010.64 1010.46 1010.29
Thickness
5773 5776 5783 5789 5793 5798 5800 5803 5806 5810 5812 5817 5822 5826 5828 5833 5840 5838 5834 5856 5861 5864 5860 5862 5869 5860 5854 5838 5846 5851 5811 5798 5812 5805 5812 5832 5819 5836 5841 5822 5823 5821 5812 5810 5812
5773 5777 5781 5787 5794 5798 5802 5805 5809 5812 5815 5819 5823 5827 5829 5834 5839 5842 5866 5866 5865 5869 5864 5863 5858 5858 5836 5834 5841 5840 5803 5825 5839 5836 5824 5835 5826 5826 5823 5816 5812 5812 5816 5816 5811
5773 5776 5779 5784 5793 5800 5803 5808 5810 5815 5818 5821 5824 5828 5831 5834 5831 5851 5874 5868 5869 5874 5874 5868 5869 5863 5836 5843 5838 5848 5823 5846 5846 5849 5846 5833 5831 5847 5824 5806 5812 5807 5808 5809 5804
5768 5776 5779 5783 5790 5800 5805 5809 5813 5817 5821 5824 5827 5829 5832 5836 5801 5866 5872 5870 5874 5873 5868 5859 5849 5841 5824 5823 5851 5832 5850 5844 5850 5855 5849 5835 5844 5834 5830 5823 5831 5825 5819 5810 5800
5763 5770 5779 5783 5789 5797 5806 5810 5817 5819 5824 5827 5829 5831 5837 5827 5837 5873 5872 5872 5874 5874 5863 5854 5838 5821 5818 5828 5841 5829 5835 5848 5847 5843 5848 5851 5820 5818 5827 5838 5837 5828 5819 5809 5803
5758 5765 5773 5781 5788 5795 5805 5811 5820 5824 5827 5830 5831 5832 5833 5814 5881 5879 5875 5872 5874 5870 5871 5868 5858 5862 5837 5842 5838 5846 5842 5840 5843 5837 5837 5831 5812 5794 5819 5831 5827 5822 5813 5810 5805
5753 5761 5769 5778 5786 5794 5802 5813 5822 5828 5830 5832 5833 5836 5833 5837 5888 5886 5880 5880 5887 5882 5870 5883 5885 5864 5863 5844 5857 5840 5818 5828 5832 5840 5818 5838 5813 5812 5826 5820 5821 5821 5815 5812 5807
5751 5759 5767 5774 5784 5794 5801 5814 5825 5832 5833 5835 5835 5836 5825 5886 5890 5885 5887 5883 5895 5893 5889 5894 5892 5874 5866 5873 5847 5823 5806 5776 5819 5826 5834 5817 5769 5804 5815 5807 5813 5819 5817 5812 5809
5750 5756 5764 5771 5781 5792 5804 5818 5830 5836 5836 5836 5835 5832 5827 5888 5872 5889 5893 5876 5887 5889 5893 5899 5888 5861 5859 5842 5816 5821 5783 5778 5806 5849 5821 5810 5773 5773 5796 5775 5809 5814 5819 5815 5809
5747 5756 5763 5771 5782 5792 5806 5824 5833 5835 5835 5837 5840 5823 5851 5851 5878 5887 5897 5890 5876 5876 5869 5870 5859 5839 5844 5824 5783 5794 5801 5809 5808 5818 5808 5795 5772 5775 5769 5766 5791 5790 5796 5808 5806
5747 5756 5764 5773 5785 5791 5803 5817 5813 5813 5829 5818 5828 5834 5857 5871 5889 5878 5889 5878 5874 5862 5832 5854 5828 5819 5842 5848 5850 5846 5831 5821 5812 5810 5792 5778 5750 5769 5773 5793 5798 5786 5750 5796 5807
5749 5755 5764 5775 5787 5798 5796 5802 5811 5818 5799 5836 5843 5848 5866 5871 5850 5866 5887 5853 5847 5825 5843 5830 5817 5856 5870 5863 5853 5840 5828 5818 5812 5807 5793 5782 5764 5779 5777 5776 5801 5779 5775 5785 5802
5748 5754 5762 5775 5791 5801 5802 5810 5832 5833 5795 5826 5845 5846 5854 5863 5845 5849 5868 5858 5839 5827 5828 5810 5833 5864 5861 5853 5844 5836 5823 5814 5803 5807 5796 5777 5764 5766 5767 5776 5795 5789 5791 5801 5807
5748 5754 5760 5773 5791 5793 5798 5822 5829 5830 5768 5811 5830 5846 5857 5858 5836 5871 5875 5857 5842 5823 5828 5821 5843 5842 5839 5843 5843 5815 5843 5833 5816 5792 5759 5781 5723 5758 5748 5755 5763 5777 5780 5802 5804
5746 5753 5759 5763 5771 5780 5805 5820 5826 5811 5734 5831 5835 5877 5862 5838 5845 5851 5881 5861 5827 5827 5829 5815 5823 5826 5825 5839 5853 5829 5845 5830 5815 5783 5764 5762 5739 5740 5742 5739 5738 5754 5780 5798 5797
5745 5752 5757 5767 5773 5795 5808 5818 5809 5756 5741 5816 5841 5832 5827 5837 5839 5852 5851 5865 5857 5831 5832 5828 5853 5844 5842 5854 5858 5861 5835 5821 5797 5773 5730 5769 5753 5741 5734 5743 5738 5762 5786 5792 5792
5746 5757 5756 5766 5776 5804 5809 5798 5753 5746 5836 5808 5814 5829 5821 5820 5825 5832 5827 5820 5802 5790 5791 5812 5825 5848 5859 5836 5850 5846 5801 5753 5746 5727 5723 5774 5751 5748 5749 5761 5778 5783 5784 5791 5795
5747 5763 5777 5784 5796 5802 5797 5766 5741 5796 5821 5844 5829 5824 5806 5821 5817 5821 5814 5800 5820 5812 5792 5776 5781 5829 5857 5841 5826 5836 5796 5750 5733 5727 5733 5761 5735 5749 5767 5768 5784 5790 5781 5792 5786
5748 5767 5778 5798 5800 5799 5771 5743 5767 5796 5821 5819 5828 5805 5804 5818 5818 5812 5807 5804 5817 5820 5783 5780 5787 5840 5848 5859 5841 5814 5786 5805 5769 5761 5727 5729 5748 5766 5752 5741 5755 5768 5772 5783 5783
5736 5753 5775 5805 5804 5789 5757 5751 5786 5818 5826 5825 5793 5819 5796 5808 5805 5803 5802 5825 5820 5837 5833 5808 5780 5825 5826 5836 5836 5820 5824 5771 5764 5729 5729 5715 5733 5730 5759 5776 5761 5771 5780 5784 5788
5732 5741 5789 5802 5799 5768 5740 5766 5793 5826 5828 5813 5804 5806 5819 5818 5815 5807 5810 5830 5838 5836 5840 5830 5801 5795 5814 5798 5794 5791 5787 5763 5758 5748 5716 5715 5726 5764 5751 5764 5768 5780 5781 5789 5785
5723 5722 5788 5799 5754 5759 5754 5780 5803 5814 5828 5824 5824 5821 5821 5825 5820 5816 5811 5823 5849 5842 5816 5826 5798 5775 5791 5818 5828 5808 5784 5767 5736 5751 5752 5747 5721 5765 5762 5758 5774 5773 5784 5793 5787
5703 5729 5782 5784 5735 5745 5766 5784 5801 5807 5811 5816 5813 5827 5832 5819 5805 5823 5821 5840 5845 5835 5818 5815 5784 5751 5763 5790 5811 5806 5797 5794 5772 5775 5755 5728 5727 5765 5759 5755 5764 5757 5782 5784 5781
5693 5712 5747 5759 5761 5755 5753 5769 5782 5817 5812 5820 5813 5821 5822 5814 5831 5814 5812 5832 5840 5828 5823 5821 5795 5778 5746 5768 5796 5795 5810 5808 5790 5759 5765 5756 5757 5771 5760 5768 5784 5787 5787 5790 5775
5689 5707 5728 5725 5738 5745 5756 5767 5774 5783 5813 5818 5808 5813 5806 5796 5794 5784 5803 5816 5823 5810 5822 5810 5780 5790 5794 5794 5791 5790 5797 5805 5786 5797 5766 5761 5767 5769 5784 5783 5785 5788 5787 5780 5776
5673 5691 5717 5722 5740 5748 5756 5768 5772 5787 5793 5799 5799 5810 5807 5781 5792 5773 5788 5785 5771 5793 5791 5792 5775 5788 5778 5786 5783 5783 5786 5789 5788 5755 5794 5786 5767 5790 5790 5790 5782 5779 5777 5769 5765
5681 5697 5703 5716 5732 5739 5749 5762 5774 5784 5794 5808 5803 5801 5794 5785 5797 5809 5808 5804 5796 5786 5779 5771 5775 5769 5751 5766 5774 5760 5774 5781 5788 5788 5784 5761 5774 5785 5779 5773 5769 5770 5771 5768 5764